STARLINK-5039, 57247

Orbit data source: Space-Track

STARLINK-5039, 57247 is a payload satellite owned by SpaceX/Seattle (US) in LEO that was launched on Fri, 07 Jul 2023 UTC via an FALCON 9 launch vehicle from the Air Force Western Test Range (AFWTR). Payload-class satellites include a variety of spacecraft equipped with specific instruments for various scientific and technological missions. These include communications satellites like Starlink; space stations such as the ISS; scientific satellites like the Hubble; Earth observation satellites from companies like Planet Labs, Umbra, and HawkEye 360; GPS; miniature CubeSats for education and research; and military/defense satellites.

Loading next visibility...
Identifier
57247, 2023-094AF
Orbit
LEO
Country
Flag of USUS
Related business
Manufacturer
SpaceX/Seattle
Mission
Operational Commercial Communications
Bus & Motor
STARLINK, Unknown motor
Mass
305 kg wet, ~290 kg dry
Launch date (UTC)
2023-07-07 (3 years ago)
Launch vehicle
FALCON 9
Launch site
Air Force Western Test Range (AFWTR)
Object type
Payload
Rocket body
Debris
Shape & HBR
Box + 1 Pan, 10.1 m
Radar Cross Section
11.087 m², Large (>1 m²)

Expand to show TLE details & history
Last TLE update: 9 hours ago

TLE from 9 hours ago
0 STARLINK-5039
1 57247U 23094AF  26167.74702466  .00000096  00000-0  13020-4 0  9996
2 57247  43.0001 180.1100 0001070 298.4317  61.6427 15.27576774162396
Epoch: 2026-06-16T17:55Z
TLE epoch observation values (Epoch: 2026-06-16T17:55:42.930Z)
Latitude
-0.00001°
Longitude
6.16649°
Altitude
482.486 km
Speed
7.626 km/s
True Right ascension
12h 00m 26s
True Declination
0° 00' 00"
Sunlit
Object was in daylight at epoch
Visualization orbit readout
Latitude
Unknown
Longitude
Unknown
Altitude
Unknown
Speed
Unknown
Apparent Right ascension
Unknown
Apparent Declination
Unknown
Sunlit
N/A
Visualization observer readout
Local Sidereal Time
13:24:02
Azimuth
Unknown
Elevation
Unknown
Doppler factor
Unknown
Orbital elements
Apogee altitude
485.738 km
Perigee altitude
484.27 km
Semi-major axis
6,863.141 km
Eccentricity
0.00011
Inclination
43.0001°
RAAN
180.11°
Arg. of periapsis
298.4317°
True anomaly
61.65349°
Mean anomaly
61.6427°
Eccentric anomaly
61.6481°
Mean motion
3.81732 °/min
Orbital period
94.31 mins
BSTAR
0.00001302
Loading maneuver chart data...
Computing Atmospheric mass density...
Loading historical data...
Loading historical data...
Loading historical data...
Loading historical data...
Loading historical data...
Loading historical data...
Loading historical data...

Documentation

Showing up to 5 results
|